Location: Milton Keynes
(52.0316°N, 0.7531°W)
Time: 11:18:15
(UTC+01:00)

N. Korean satellite - Pass Details

Date: 27 January 2019
Orbit: 457 x 508 km, 97.2° (Epoch: 21 April)

Event Time Altitude Azimuth Distance (km) Brightness Sun altitude
Rises 05:07:32 0° 30° (NNE) 2,616 10.7 -24.9°
Maximum altitude 05:12:22 12° 87° (E) 1,554 10.1 -24.2°
Drops below altitude 10° 05:13:59 10° 113° (ESE) 1,695 10.2 -23.9°
Sets 05:17:07 0° 144° (SE) 2,556 10.7 -23.4°
